Latest Coastal Weather Observations for Marion Reef

IDQ60701

Issued at 7:35 am EST Tuesday 21 October 2014 (issued every 10 minutes, with the page automatically refreshed every 10 minutes)

About coastal observations | Map of coastal stations | Coastal observations for QLD | Marine services | Other Formats
Station Details ID: 200704 Name: MARION REEF Lat: -19.10 Lon: 152.39 Height: 2.0 m
Data from the previous 72 hours. | See also: Recent months for locations in Queensland
Date/Time
EST
Temp

°C
Wind Pressure Rain
since 9am
mm
Weather Cloud Vis
km
Sea
Height
m
Swell
Dir
 
Speed
knots
Gust
knots
hPa Trend Height
m
Period
s
Dir
21/07:30am 23.6 ESE 24 28 1019.5 - - - - - - - - -
21/07:00am 23.5 SE 23 27 1019.1 - - - - - - - - -
21/06:30am 23.2 ESE 22 27 1018.8 - - - - - - - - -
21/06:00am 23.2 SE 23 25 1018.4 - - - - - - - - -
21/05:30am 23.4 SE 22 26 1018.0 - - - - - - - - -
21/05:00am 23.2 SE 21 25 1017.8 - - - - - - - - -
21/04:30am 23.3 SE 21 25 1017.8 - - - - - - - - -
21/04:00am 23.3 SE 21 24 1017.5 - - - - - - - - -
21/03:30am 23.2 SE 23 26 1017.4 - - - - - - - - -
21/03:00am 23.0 SE 23 25 1017.4 - - - - - - - - -
21/02:30am 23.0 SE 23 26 1017.7 - - - - - - - - -
21/02:00am 23.1 SE 22 25 1017.8 - - - - - - - - -
21/01:30am 23.2 SE 22 27 1018.2 - - - - - - - - -
21/01:00am 23.2 SE 23 27 1018.3 - - - - - - - - -
21/12:30am 23.4 ESE 21 26 1018.9 - - - - - - - - -
21/12:00am 23.3 SE 22 25 1019.1 - - - - - - - - -
 
Date/Time
EST
Temp

°C
Wind Pressure Rain
since 9am
mm
Weather Cloud Vis
km
Sea
Height
m
Swell
Dir
 
Speed
knots
Gust
knots
hPa Trend Height
m
Period
s
Dir
20/11:30pm 23.5 SE 22 25 1019.5 - - - - - - - - -
20/11:00pm 23.4 SE 24 27 1019.6 - - - - - - - - -
20/10:30pm 23.3 SE 23 26 1019.7 - - - - - - - - -
20/10:00pm 23.4 ESE 24 27 1019.7 - - - - - - - - -
20/09:30pm 23.3 SE 23 26 1019.9 - - - - - - - - -
20/09:00pm 23.6 SE 24 27 1019.6 - - - - - - - - -
20/08:30pm 23.5 SE 23 27 1019.3 - - - - - - - - -
20/08:00pm 23.3 ESE 24 26 1019.0 - - - - - - - - -
20/07:30pm 23.4 SE 24 29 1018.6 - - - - - - - - -
20/07:00pm 23.3 SE 22 25 1018.5 - - - - - - - - -
20/06:30pm 23.1 ESE 22 27 1018.4 - - - - - - - - -
20/06:00pm 23.3 SE 22 25 1018.0 - - - - - - - - -
20/05:30pm 23.2 ESE 20 24 1018.1 - - - - - - - - -
20/05:00pm 23.4 SE 21 25 1017.7 - - - - - - - - -
20/04:30pm 23.5 SE 21 24 1017.5 - - - - - - - - -
20/04:00pm 23.3 SE 22 25 1017.2 - - - - - - - - -
20/03:30pm 23.4 SE 21 25 1017.3 - - - - - - - - -
20/03:00pm 23.3 SE 21 24 1017.1 - - - - - - - - -
20/02:30pm 23.4 SE 22 25 1017.1 - - - - - - - - -
20/02:00pm 23.7 SE 21 23 1017.1 - - - - - - - - -
20/01:30pm 23.6 SE 21 25 1017.6 - - - - - - - - -
20/01:00pm 23.4 SE 21 25 1017.8 - - - - - - - - -
20/12:30pm 23.5 SE 21 24 1018.3 - - - - - - - - -
20/12:00pm 23.6 SE 21 25 1018.6 - - - - - - - - -
20/11:30am 23.3 SE 22 26 1019.0 - - - - - - - - -
20/11:00am 23.5 SE 22 25 1019.2 - - - - - - - - -
20/10:30am 23.6 SE 21 26 1019.8 - - - - - - - - -
20/10:00am 23.4 SE 21 25 1020.2 - - - - - - - - -
20/09:30am 23.4 SE 21 24 1020.2 - - - - - - - - -
20/09:00am 23.6 SE 21 25 1020.2 - - - - - - - - -
20/08:30am 23.4 SE 22 27 1020.4 - - - - - - - - -
20/08:00am 23.2 SE 23 25 1020.2 - - - - - - - - -
20/07:30am 23.3 SE 23 26 1020.0 - - - - - - - - -
20/07:00am 23.4 SE 22 25 1019.6 - - - - - - - - -
20/06:30am 23.1 SE 22 27 1019.3 - - - - - - - - -
20/06:00am 23.1 SE 23 27 1019.0 - - - - - - - - -
20/05:30am 23.1 SE 24 27 1018.5 - - - - - - - - -
20/05:00am 23.2 SE 24 28 1018.2 - - - - - - - - -
20/04:30am 23.1 SE 24 29 1017.9 - - - - - - - - -
20/04:00am 23.1 SE 25 29 1017.8 - - - - - - - - -
20/03:30am 23.1 SE 22 28 1017.8 - - - - - - - - -
20/03:00am 23.1 SE 23 27 1017.7 - - - - - - - - -
20/02:30am 23.2 SE 24 28 1017.9 - - - - - - - - -
20/02:00am 23.1 SE 23 27 1017.9 - - - - - - - - -
20/01:30am 23.2 SE 24 27 1018.4 - - - - - - - - -
20/01:00am 23.2 SE 23 28 1018.5 - - - - - - - - -
20/12:30am 23.4 SE 23 26 1019.1 - - - - - - - - -
20/12:00am 23.3 SE 23 26 1019.2 - - - - - - - - -
 
Date/Time
EST
Temp

°C
Wind Pressure Rain
since 9am
mm
Weather Cloud Vis
km
Sea
Height
m
Swell
Dir
 
Speed
knots
Gust
knots
hPa Trend Height
m
Period
s
Dir
19/11:30pm 23.3 SE 24 27 1019.7 - - - - - - - - -
19/11:00pm 23.4 SE 23 27 1019.9 - - - - - - - - -
19/10:30pm 23.5 SE 24 28 1020.4 - - - - - - - - -
19/10:00pm 23.3 SE 24 27 1020.3 - - - - - - - - -
19/09:30pm 23.6 SE 25 29 1020.4 - - - - - - - - -
19/09:00pm 23.6 SE 25 31 1020.2 - - - - - - - - -
19/08:30pm 23.5 SE 26 33 1020.1 - - - - - - - - -
19/08:00pm 23.8 SE 27 33 1019.7 - - - - - - - - -
19/07:30pm 23.6 SE 26 32 1019.8 - - - - - - - - -
19/07:00pm 23.6 SE 26 30 1019.4 - - - - - - - - -
19/06:30pm 23.7 SE 26 31 1019.3 - - - - - - - - -
19/06:00pm 23.3 SE 26 29 1019.0 - - - - - - - - -
19/05:30pm 23.4 SE 24 29 1018.9 - - - - - - - - -
19/05:00pm 23.6 SE 25 29 1018.6 - - - - - - - - -
19/04:30pm 23.4 SE 26 31 1018.2 - - - - - - - - -
19/04:00pm 23.6 SE 27 32 1017.8 - - - - - - - - -
19/03:30pm 23.8 SE 26 30 1017.5 - - - - - - - - -
19/03:00pm 23.5 SE 25 30 1017.4 - - - - - - - - -
19/02:30pm 23.9 SE 25 30 1017.5 - - - - - - - - -
19/02:00pm 23.7 SE 26 30 1017.6 - - - - - - - - -
19/01:30pm 23.6 SE 25 30 1018.0 - - - - - - - - -
19/01:00pm 23.6 SE 25 29 1018.1 - - - - - - - - -
19/12:30pm 23.9 SE 25 28 1018.6 - - - - - - - - -
19/12:00pm 23.8 SE 24 30 1018.7 - - - - - - - - -
19/11:30am 23.6 SE 25 29 1019.2 - - - - - - - - -
19/11:00am 23.7 SE 25 30 1019.5 - - - - - - - - -
19/10:30am 23.7 SE 25 29 1019.7 - - - - - - - - -
19/10:00am 23.7 SE 24 27 1019.8 - - - - - - - - -
19/09:30am 23.8 SE 24 29 1020.2 - - - - - - - - -
19/09:00am 23.4 SE 24 28 1020.2 - - - - - - - - -
19/08:30am 23.7 SE 24 29 1020.1 - - - - - - - - -
19/08:00am 23.7 SE 24 30 1020.1 - - - - - - - - -
19/07:30am 23.3 SE 25 30 1019.9 - - - - - - - - -
19/07:00am 23.4 SE 26 31 1019.6 - - - - - - - - -
19/06:30am 23.5 SE 27 31 1019.2 - - - - - - - - -
19/06:00am 23.4 SE 26 31 1018.9 - - - - - - - - -
19/05:30am 23.4 SE 25 29 1018.6 - - - - - - - - -
19/05:00am 23.4 SE 26 31 1018.2 - - - - - - - - -
19/04:30am 23.4 SE 26 31 1017.9 - - - - - - - - -
19/04:00am 23.1 SE 27 30 1017.6 - - - - - - - - -
19/03:30am 23.3 SE 27 33 1017.7 - - - - - - - - -
19/03:00am 23.3 SE 26 31 1017.6 - - - - - - - - -
19/02:30am 23.1 SE 26 30 1017.8 - - - - - - - - -
19/02:00am 23.3 SE 27 31 1017.8 - - - - - - - - -
19/01:30am 23.2 SE 27 32 1018.2 - - - - - - - - -
19/01:00am 23.5 SE 27 31 1018.2 - - - - - - - - -
19/12:30am 23.4 SE 27 32 1018.5 - - - - - - - - -
19/12:00am 23.7 SE 27 32 1018.6 - - - - - - - - -
 
Date/Time
EST
Temp

°C
Wind Pressure Rain
since 9am
mm
Weather Cloud Vis
km
Sea
Height
m
Swell
Dir
 
Speed
knots
Gust
knots
hPa Trend Height
m
Period
s
Dir
18/11:30pm 23.8 SE 28 33 1019.1 - - - - - - - - -
18/11:00pm 23.8 SE 29 33 1019.3 - - - - - - - - -
18/10:30pm 23.8 SE 29 35 1019.6 - - - - - - - - -
18/10:00pm 23.9 SE 29 34 1019.5 - - - - - - - - -
18/09:30pm 23.9 SE 28 33 1019.7 - - - - - - - - -
18/09:00pm 23.8 SE 29 33 1019.5 - - - - - - - - -
18/08:30pm 24.1 SE 27 32 1019.3 - - - - - - - - -
18/08:00pm 23.9 SE 26 32 1019.0 - - - - - - - - -
18/07:30pm 23.9 SSE 28 33 1019.0 - - - - - - - - -
18/07:00pm 24.2 SE 26 31 1018.6 - - - - - - - - -
18/06:30pm 24.2 SE 27 32 1018.4 - - - - - - - - -
18/06:00pm 24.3 SE 24 28 1018.0 - - - - - - - - -
18/05:30pm 24.0 SE 24 30 1017.5 - - - - - - - - -
18/05:00pm 24.0 SE 23 28 1017.0 - - - - - - - - -
18/04:30pm 24.3 SE 25 29 1016.7 - - - - - - - - -
18/04:00pm 24.5 SE 23 27 1016.2 - - - - - - - - -
18/03:30pm 24.5 SE 22 26 1016.1 - - - - - - - - -
18/03:00pm 24.3 SE 23 26 1016.1 - - - - - - - - -
18/02:30pm 24.4 SE 22 26 1016.4 - - - - - - - - -
18/02:00pm 24.4 SE 21 24 1016.3 - - - - - - - - -
18/01:30pm 24.4 SE 22 24 1016.6 - - - - - - - - -
18/01:00pm 24.4 SE 21 24 1016.8 - - - - - - - - -
18/12:30pm 24.6 SE 21 24 1017.1 - - - - - - - - -
18/12:00pm 24.5 SE 20 23 1017.3 - - - - - - - - -
18/11:30am 24.3 SE 20 23 1017.7 - - - - - - - - -
18/11:00am 24.4 SE 19 22 1017.9 - - - - - - - - -
18/10:30am 24.4 SE 16 18 1018.3 - - - - - - - - -
18/10:00am 24.5 SE 17 20 1018.3 - - - - - - - - -
18/09:30am 24.3 ESE 17 19 1018.7 - - - - - - - - -
18/09:00am 24.4 SE 17 20 1018.6 - - - - - - - - -
18/08:30am 24.1 SE 18 20 1018.6 - - - - - - - - -
18/08:00am 24.2 SE 18 21 1018.5 - - - - - - - - -

Other Formats:

Comma delimited format used in spreadsheet applications
http://www.bom.gov.au/fwo/IDQ60701/IDQ60701.94298.axf

JavaScript Object Notation format (JSON) in row-major order
http://www.bom.gov.au/fwo/IDQ60701/IDQ60701.94298.json